Showing default

IRIDE-MS2-HEO-7, 68981

Orbit data source: Space-Track

IRIDE-MS2-HEO-7, 68981 is an Italian payload satellite in SSO that was launched on Sun, 03 May 2026 UTC via an FALCON 9 launch vehicle from the Air Force Western Test Range (AFWTR). Payload-class satellites include a variety of spacecraft equipped with specific instruments for various scientific and technological missions. These include communications satellites like Starlink; space stations such as the ISS; scientific satellites like the Hubble; Earth observation satellites from companies like Planet Labs, Umbra, and HawkEye 360; GPS; miniature CubeSats for education and research; and military/defense satellites.

Loading next visibility...
Identifier
68981, 2026-100B
Orbit
SSO
Country
Flag of ITIT
Related business
Manufacturer
ArgoTec
Mission
Operational spacecraft
Bus & Motor
HAWK, Unknown motor
Mass
65 kg wet, 65 kg dry
Launch date (UTC)
2026-05-03 (2 months ago)
Launch vehicle
FALCON 9
Launch site
Air Force Western Test Range (AFWTR)
Object type
Payload
Rocket body
Debris
Shape & HBR
Unknown shape, 14.5 m
Radar Cross Section
Medium (>0.1 m² and <1 m²)

Expand to show TLE details & history
Last TLE update: 14 hours ago

TLE from 14 hours ago
0 IRIDE-MS2-HEO-7
1 68981U 26100B   26175.20790020  .00001276  00000-0  13457-3 0  9991
2 68981  97.7357  72.4794 0006338 116.1460 244.0411 14.91021968  7749
Epoch: 2026-06-24T04:59Z
TLE epoch observation values (Epoch: 2026-06-24T04:59:22.577Z)
Latitude
-0.00001°
Longitude
85.26691°
Altitude
599.726 km
Speed
7.559 km/s
True Right ascension
04h 49m 55s
True Declination
0° 00' 00"
Sunlit
Object was in daylight at epoch
Visualization orbit readout
Latitude
Unknown
Longitude
Unknown
Altitude
Unknown
Speed
Unknown
Apparent Right ascension
Unknown
Apparent Declination
Unknown
Sunlit
N/A
Visualization observer readout
Local Sidereal Time
06:07:37
Azimuth
Unknown
Elevation
Unknown
Doppler factor
Unknown
Orbital elements
Apogee altitude
596.184 km
Perigee altitude
587.349 km
Semi-major axis
6,969.903 km
Eccentricity
0.00063
Inclination
97.7357°
RAAN
72.4794°
Arg. of periapsis
116.146°
True anomaly
243.97582°
Mean anomaly
244.0411°
Eccentric anomaly
244.00846°
Mean motion
3.72995 °/min
Orbital period
96.52 mins
BSTAR
0.00013457
Loading maneuver chart data...
Computing Atmospheric mass density...
Loading historical data...
Loading historical data...
Loading historical data...
Loading historical data...
Loading historical data...
Loading historical data...
Loading historical data...

Documentation

Showing up to 5 results
|